Theta_e
326 326 326 325 324 322 320 320 320 319 317 315 312 312 314 309 305 305 306 305 306 306 306 307 307 308 308 308 307 306 305 305 305 306 306 305 305 306 306 307 307 307 307 308 308 309 309 309 310 310 311 311 311 312 312 312 312 313 313 313 313 313 314 314 313 311 312 312 308 307 309 307 304 304 304 303 303 303 302 301 301 301 302 302 302
327 327 326 326 325 323 321 321 321 320 318 315 313 314 314 310 306 306 306 306 306 306 306 306 307 308 310 311 310 308 307 306 306 309 309 307 306 306 307 309 309 307 306 307 307 308 308 308 308 308 308 308 309 311 311 311 312 313 313 313 312 312 313 313 313 312 311 312 310 308 310 308 305 306 307 305 304 303 302 302 302 301 301 303 303
327 326 326 326 325 323 322 321 321 320 319 315 313 313 314 312 309 307 306 307 306 306 307 306 306 307 308 310 310 308 308 307 307 309 310 311 311 310 310 311 311 310 309 309 309 308 308 309 309 309 308 307 308 310 310 311 311 311 311 311 311 311 311 312 313 312 311 310 309 307 309 310 307 306 307 308 307 305 303 303 303 302 302 303 303
326 326 326 326 325 324 324 323 320 319 318 316 313 313 313 313 313 309 306 307 307 307 307 307 307 307 306 307 307 307 308 307 307 308 310 312 313 313 313 313 313 314 314 313 312 311 311 312 312 312 312 310 310 310 309 310 311 311 311 311 310 310 311 312 313 312 310 310 308 306 308 309 308 307 307 307 307 307 306 305 305 305 305 305 304
325 325 325 325 325 325 325 323 319 317 318 317 315 314 312 311 314 313 310 308 308 308 308 307 307 307 307 307 307 307 308 308 309 310 311 311 312 313 314 314 315 315 315 315 314 314 314 314 314 314 315 314 313 312 311 311 311 312 312 311 311 311 311 312 312 312 311 310 309 308 308 308 307 308 308 308 307 307 307 306 306 307 307 308 307
325 324 324 325 324 324 324 323 320 318 318 317 316 315 312 310 312 315 315 312 310 309 309 309 308 308 308 308 309 309 309 310 312 313 314 314 314 314 314 315 315 315 316 316 316 315 315 315 315 315 316 316 315 314 314 313 312 311 312 311 311 311 312 312 313 312 312 311 310 310 310 309 309 309 309 309 308 308 308 307 307 307 307 307 308
325 324 324 324 324 324 323 322 322 321 319 318 318 317 315 313 312 314 315 316 315 313 312 312 311 310 309 310 311 311 311 312 313 314 315 317 317 316 316 316 316 316 316 316 316 316 316 316 316 316 316 316 315 315 315 315 314 312 312 311 310 311 312 312 312 313 313 312 312 311 311 310 310 309 308 308 308 308 307 308 308 308 307 307 307
324 324 324 324 324 323 323 322 323 322 320 319 319 318 317 316 314 314 315 315 317 317 316 315 315 314 312 311 312 312 312 313 314 314 315 316 317 316 316 317 317 317 317 317 316 316 315 315 315 315 315 315 315 315 315 315 315 314 313 312 311 310 311 311 312 313 313 313 313 312 312 311 311 310 309 309 309 308 308 307 307 307 307 306 306
324 324 324 324 323 323 323 322 322 322 321 319 320 320 319 317 316 315 315 315 316 317 317 318 318 317 315 314 313 312 312 313 315 315 316 316 317 316 316 317 317 318 318 318 318 317 316 315 315 314 315 315 315 315 315 315 315 315 313 313 312 311 311 310 311 312 312 312 312 312 312 312 311 310 310 309 309 308 307 307 307 306 306 306 306
323 323 323 323 323 323 323 323 322 322 321 320 320 321 320 319 317 316 315 315 315 316 317 318 318 318 317 317 315 314 313 314 315 315 316 316 316 317 317 317 317 317 317 317 318 318 317 317 316 315 314 315 315 315 316 315 316 315 314 313 312 311 310 310 310 311 311 312 312 312 311 311 311 310 309 308 308 307 307 307 306 305 305 305 305
320 320 321 322 322 323 322 322 322 322 322 322 322 321 321 320 319 317 317 316 316 316 316 316 317 317 318 318 317 316 315 315 315 315 315 315 315 315 315 315 316 315 315 316 316 317 317 318 318 316 314 315 315 315 316 316 316 316 315 315 314 312 310 309 310 310 310 311 311 311 310 310 309 309 308 308 307 307 306 306 305 305 304 305 305
315 316 317 318 319 320 320 321 322 322 322 322 322 322 321 321 320 319 318 317 316 316 316 316 317 317 317 317 316 316 316 315 315 315 315 315 314 314 313 313 313 312 313 315 314 315 316 316 314 313 312 312 313 314 315 316 317 317 316 316 316 314 311 309 309 309 309 309 310 310 309 308 308 308 307 307 306 306 305 305 305 304 304 304 304
310 311 312 314 315 316 317 319 320 321 321 321 321 322 321 321 321 320 320 319 318 317 316 316 316 317 317 316 315 315 316 316 316 315 315 315 314 313 313 314 313 313 313 312 309 308 308 307 307 306 306 305 306 307 309 311 313 316 317 317 317 316 312 308 308 308 307 307 308 308 308 308 307 306 306 305 304 305 305 305 304 304 303 303 303
309 309 310 310 311 311 314 317 319 319 320 320 320 320 320 320 321 320 320 320 319 318 317 316 315 316 315 315 315 316 316 316 316 315 314 314 313 313 314 315 315 313 310 307 304 303 302 302 303 303 302 302 302 303 305 305 307 312 316 317 316 314 310 308 308 307 306 306 306 306 307 307 306 305 304 304 304 304 304 304 303 303 302 302 302
308 308 308 308 309 309 311 314 316 318 319 319 319 319 320 320 320 320 320 320 319 318 318 317 316 315 315 315 316 317 317 316 315 314 313 312 313 315 315 315 312 309 305 303 303 303 302 302 302 302 302 302 302 302 303 305 307 312 315 316 315 313 310 308 307 306 305 305 305 305 306 306 305 304 303 303 303 303 303 303 303 302 301 301 301
307 306 307 307 308 308 309 310 313 315 317 318 318 319 319 320 320 320 320 320 319 318 317 317 317 317 317 317 317 318 318 315 314 313 312 312 314 315 313 311 308 305 304 303 303 302 302 302 302 302 302 302 302 302 303 306 310 313 314 313 312 311 309 307 306 305 305 305 305 305 305 305 304 304 303 303 303 303 303 302 301 300 301 301 300
306 305 305 306 306 307 308 309 310 312 314 316 317 317 318 319 319 319 319 319 319 318 317 317 318 318 318 317 317 318 318 315 314 314 312 312 314 313 310 308 306 304 304 303 303 302 303 302 302 302 301 301 302 302 303 306 310 311 311 310 309 307 307 306 305 305 305 305 305 305 305 304 304 303 303 303 303 303 302 300 299 299 299 299 299
305 306 306 305 305 306 307 308 309 310 311 313 314 315 317 318 319 319 319 318 318 318 318 318 318 318 318 317 317 317 316 315 314 313 313 314 313 311 310 309 306 304 304 304 303 303 303 302 302 302 302 301 302 302 302 305 308 309 308 307 306 305 305 305 305 305 305 305 304 304 304 304 303 303 303 303 303 302 301 298 297 297 297 298 298
304 305 305 306 305 305 306 307 308 308 309 310 311 313 315 316 317 318 318 318 318 318 318 318 317 317 317 317 316 315 314 314 314 313 314 314 311 308 310 309 306 305 305 304 304 303 303 302 302 302 301 301 301 302 302 303 306 307 307 306 306 306 305 305 305 305 305 304 304 304 304 304 303 303 302 302 301 300 298 297 296 296 296 297 298
303 303 303 304 305 305 305 305 306 307 308 308 309 310 312 314 316 317 317 317 317 317 317 317 317 316 316 315 315 315 314 314 314 314 313 311 308 308 311 310 308 307 305 303 303 302 302 302 302 302 302 302 302 302 302 303 305 306 306 306 306 306 305 305 304 304 304 304 303 303 303 302 302 301 300 299 298 297 296 296 295 296 296 296 297
300 301 302 302 303 304 305 305 305 305 306 307 307 308 309 311 312 314 315 316 315 315 317 317 316 316 315 314 315 315 314 314 314 312 311 309 307 307 310 310 309 307 306 304 304 303 302 302 302 302 302 302 302 302 302 303 303 304 305 305 305 305 304 304 303 303 303 302 302 301 301 300 299 299 298 297 297 296 296 296 295 295 296 296 296
297 298 298 299 300 301 303 304 305 305 305 305 306 307 307 308 308 309 312 314 314 314 315 316 316 315 315 315 315 315 314 314 312 310 310 309 306 305 308 310 308 306 306 306 305 304 303 302 302 302 302 301 301 301 302 302 303 303 303 303 303 303 303 303 302 301 300 300 299 298 298 298 298 298 297 297 297 296 296 295 295 295 295 295 295
295 296 296 297 297 298 299 301 303 304 305 304 305 306 307 308 307 307 309 311 313 314 314 314 314 315 315 314 313 312 311 310 309 309 310 309 304 303 306 306 304 305 306 306 305 303 303 303 303 302 302 302 301 301 301 302 302 303 303 303 303 303 302 301 300 299 298 297 297 297 297 297 298 297 297 296 296 295 295 294 294 294 294 294 294
295 295 295 295 296 296 297 298 299 302 303 304 304 305 306 307 308 308 309 310 312 313 314 313 314 314 314 313 311 310 309 310 311 310 308 305 303 303 304 303 303 304 305 305 303 303 303 303 303 303 302 302 301 301 301 302 302 302 302 301 301 300 299 298 297 297 296 296 297 297 297 297 296 296 296 295 295 295 295 294 294 294 294 294 294
295 295 295 295 295 295 296 296 297 298 300 301 302 304 305 307 308 308 309 309 310 311 312 312 312 312 313 311 309 308 309 310 309 307 304 303 303 303 303 303 303 303 303 303 303 303 303 303 303 302 302 301 301 301 301 301 300 299 299 298 298 298 297 297 296 296 296 296 296 296 296 296 295 295 294 294 294 295 294 294 294 294 294 294 293
295 295 295 295 295 295 295 296 296 297 297 298 300 302 304 305 307 308 308 309 309 310 311 311 310 310 310 308 307 308 308 307 304 303 303 303 303 304 304 304 304 303 303 303 303 303 303 303 302 302 301 301 301 301 300 299 298 298 298 298 297 297 296 296 295 295 295 296 295 295 295 295 295 294 294 294 294 294 294 293 293 293 293 293 293
295 295 295 295 295 295 296 296 296 297 297 298 298 300 302 304 306 307 308 309 309 309 310 310 310 309 309 308 307 307 306 304 302 302 303 303 303 304 305 305 304 304 304 303 304 303 303 302 301 301 301 301 300 299 298 298 298 298 298 298 297 296 295 295 294 294 294 294 294 294 294 294 294 294 294 294 293 293 293 293 292 292 292 292 292
295 295 295 295 295 295 296 296 296 296 297 298 298 299 301 303 304 306 307 308 309 309 310 310 310 309 309 308 307 305 303 302 302 303 302 303 303 304 305 305 304 304 304 304 303 302 301 301 301 301 300 299 298 297 297 297 297 297 297 296 296 296 295 294 294 294 294 293 294 294 294 294 294 294 294 293 293 293 293 292 292 292 292 292 292
295 295 295 295 295 295 296 296 296 297 298 298 299 300 301 301 301 302 304 306 307 308 309 310 310 309 309 308 305 303 303 303 303 303 303 303 303 304 305 305 304 304 304 303 301 300 300 301 300 300 299 298 297 297 297 297 297 297 296 295 295 294 294 294 293 293 293 293 293 293 293 293 293 293 293 293 293 292 292 292 292 292 292 292 292
295 295 295 295 295 295 295 296 297 298 298 299 299 300 301 300 298 299 300 302 304 305 306 307 308 308 308 306 304 303 303 303 303 303 303 303 303 304 305 304 304 303 302 301 300 300 300 300 300 299 298 297 297 296 297 297 296 296 295 294 294 294 293 293 292 292 292 293 293 293 293 293 293 292 292 292 292 292 292 291 291 292 292 292 292
295 295 295 295 295 295 295 295 296 297 298 299 300 300 301 301 299 297 297 299 302 302 303 304 305 305 305 304 303 303 304 303 303 303 303 303 304 305 304 304 303 302 301 300 300 301 301 300 300 299 298 297 297 297 297 296 295 294 294 294 294 293 293 292 292 292 292 292 293 292 292 292 292 292 292 291 291 291 291 291 291 291 291 291 292
294 295 295 295 295 294 294 294 295 295 297 298 299 300 301 301 301 299 297 298 300 301 302 302 303 303 303 303 303 303 303 303 303 303 303 304 305 304 303 303 302 300 300 300 301 301 301 300 298 298 297 297 297 297 296 295 294 294 294 293 293 293 292 291 291 291 292 292 292 292 292 292 292 291 291 291 291 291 291 291 291 291 291 291 291
295 295 295 295 294 294 294 294 294 295 295 297 298 299 300 301 301 301 299 298 299 300 301 301 302 302 302 303 303 303 303 303 303 302 303 304 305 304 302 301 301 300 300 301 301 301 300 298 297 297 297 296 296 296 295 294 294 294 293 293 293 292 291 291 291 291 292 292 292 292 292 292 292 291 291 291 291 291 291 291 291 291 291 291 291
296 295 295 295 294 294 294 294 294 295 295 296 297 298 300 300 301 301 301 299 299 299 300 301 301 301 302 302 302 302 303 303 302 302 302 303 303 303 301 301 300 301 301 301 301 299 298 297 297 297 296 296 295 294 294 294 294 293 293 293 293 292 291 290 291 291 292 292 292 292 292 292 291 291 291 291 290 290 290 290 290 291 291 291 291
297 297 297 296 295 294 294 294 294 294 295 295 296 298 299 300 300 301 301 301 300 300 300 300 301 301 302 301 302 302 302 302 302 302 302 302 302 301 301 301 301 301 301 300 299 298 297 297 297 296 296 295 294 293 294 294 294 293 293 293 292 291 290 290 290 291 291 292 292 292 292 291 291 291 291 290 290 290 290 290 290 290 290 290 290
297 297 297 297 296 295 294 294 294 294 294 295 295 297 298 299 300 301 301 301 301 301 301 300 301 301 302 302 302 302 302 302 302 302 301 302 302 302 301 302 302 302 301 299 297 297 297 296 296 296 295 294 293 293 294 294 293 293 293 292 291 290 290 290 290 291 291 292 292 292 291 291 291 290 290 290 290 290 290 290 290 290 290 290 290
296 296 297 297 296 295 294 294 294 294 294 294 294 296 298 299 299 300 301 301 301 301 301 301 301 301 301 301 302 302 302 302 302 302 302 302 302 302 301 301 302 301 299 297 296 296 296 296 296 295 294 293 294 294 294 293 293 293 292 291 291 290 290 290 290 290 291 292 292 292 291 291 291 290 290 290 290 290 290 290 290 290 290 290 290
296 295 295 295 295 294 294 293 293 294 294 294 294 295 297 298 299 299 300 300 301 301 300 300 300 301 301 301 302 302 301 302 302 301 301 301 300 299 299 300 299 298 297 296 296 296 296 296 295 294 294 294 294 294 294 293 293 293 292 292 291 290 290 290 291 291 291 291 292 291 291 291 291 290 290 290 290 290 290 289 289 290 290 290 290
295 295 295 296 296 295 294 293 293 293 294 294 294 294 296 297 298 299 299 299 299 299 299 298 299 299 299 300 300 301 301 301 301 301 300 298 297 297 297 297 297 296 296 296 296 296 295 295 294 294 294 294 294 294 293 293 293 292 292 291 290 289 290 291 292 291 291 291 291 291 291 291 291 290 290 290 289 289 289 289 289 289 289 290 290
295 295 295 296 297 296 294 293 293 293 294 294 294 294 295 297 298 299 299 299 299 299 298 298 298 298 298 298 299 300 300 300 298 298 298 297 296 296 296 296 296 295 295 296 296 296 295 294 293 293 294 294 294 293 293 292 292 292 291 291 290 289 290 291 291 291 290 290 291 291 291 291 290 290 290 290 289 289 289 289 289 289 290 290 290
295 295 295 296 296 295 294 293 293 294 294 294 294 294 295 297 297 298 298 298 298 298 298 298 298 297 298 299 299 299 300 299 297 296 297 296 296 295 295 295 295 295 296 296 296 294 293 293 293 293 293 293 293 293 292 292 292 291 290 290 290 289 289 291 290 290 289 290 290 290 290 290 290 290 290 289 289 289 289 289 289 290 290 290 290
295 295 295 295 295 294 294 294 294 294 294 294 294 295 295 296 297 297 298 298 298 298 298 298 298 298 298 299 299 299 298 298 297 296 296 295 295 295 295 295 296 296 296 295 294 293 292 292 293 293 292 292 292 292 291 291 291 290 290 290 289 288 289 290 290 289 289 289 289 290 290 290 290 289 289 289 289 289 289 289 289 290 290 290 290
295 295 295 295 295 294 294 294 294 294 294 294 294 294 295 296 297 297 297 297 298 298 298 298 298 298 298 299 299 298 298 297 296 295 295 294 294 295 295 295 295 295 294 293 292 292 292 292 293 292 292 292 292 292 291 290 290 289 289 289 288 288 288 289 289 289 289 289 289 289 290 290 290 289 289 289 289 289 289 289 289 290 290 290 290
296 296 296 295 295 295 295 295 295 295 294 294 294 294 295 296 297 297 297 297 297 297 298 298 298 298 299 299 298 297 296 296 295 294 294 294 294 294 294 294 295 295 293 292 291 292 292 292 292 292 292 292 292 292 290 290 289 288 288 288 288 287 288 288 289 289 289 289 289 289 290 290 290 289 289 289 289 289 290 290 290 289 290 290 290
297 296 296 296 295 294 294 294 294 294 294 294 294 294 295 296 297 296 296 296 296 297 298 298 298 298 299 298 296 295 294 295 294 294 294 294 294 294 294 294 294 293 291 290 291 292 292 292 292 291 291 292 292 291 290 289 288 288 288 287 287 287 287 288 288 289 289 289 289 289 289 290 290 289 289 289 289 290 290 290 290 290 290 290 290
297 296 296 296 296 295 294 294 294 294 294 294 294 294 295 296 296 296 296 296 296 297 298 299 298 297 297 297 295 294 294 294 294 294 294 294 294 294 294 293 292 291 289 289 291 291 291 291 291 291 291 291 291 290 289 288 287 287 287 287 287 287 287 287 288 288 289 289 289 288 289 290 290 289 289 289 290 290 290 290 290 290 290 290 290
296 296 297 297 296 296 295 294 294 294 294 295 295 295 295 296 296 296 296 296 296 297 297 298 297 296 296 296 295 294 294 293 293 294 294 294 294 294 293 293 292 290 289 289 290 291 291 291 291 291 291 291 290 289 288 287 287 288 288 288 288 287 287 287 287 288 288 288 288 288 289 290 290 290 289 289 290 290 290 290 290 290 290 290 290
295 295 296 297 297 296 295 294 294 295 295 295 295 295 295 295 295 295 295 296 296 296 295 296 296 296 295 295 294 293 293 293 294 294 294 294 294 293 293 292 292 291 290 289 290 291 291 291 291 292 292 291 289 288 287 287 288 288 288 288 288 288 287 287 287 287 288 288 288 288 289 289 289 289 289 289 290 290 290 290 290 290 290 290 290
295 295 295 296 296 296 295 295 294 294 294 294 294 294 294 295 295 294 294 294 294 294 294 295 295 295 294 293 293 293 293 294 294 294 294 294 294 293 293 292 291 291 290 289 290 291 291 291 292 291 291 289 288 288 287 288 288 288 289 289 289 289 288 286 286 287 287 287 288 288 289 289 289 289 289 290 290 290 290 290 290 290 290 290 290
296 296 296 295 295 295 295 295 294 294 294 294 294 293 294 294 294 294 293 293 293 293 293 294 294 293 293 293 293 293 294 294 294 294 294 293 293 292 292 292 291 291 289 289 290 291 291 291 291 290 289 288 288 287 287 288 288 289 289 289 290 289 288 287 286 286 287 287 287 288 288 289 289 289 289 290 290 290 290 290 290 290 290 290 290
295 296 296 296 295 295 295 295 294 294 294 294 294 294 294 294 294 294 293 293 293 293 293 293 293 294 294 294 294 293 293 293 294 293 293 292 292 292 292 292 291 290 289 288 289 290 290 290 289 289 288 288 287 287 288 288 289 289 289 290 290 290 289 288 287 287 287 287 287 287 288 288 289 289 289 290 290 290 290 290 290 290 290 291 291
Wind_Speed
20 19 21 22 23 24 24 24 22 17 14 15 12 10 9 9 9 10 9 7 6 7 8 8 9 9 9 9 9 10 10 12 13 13 12 13 13 13 13 12 10 10 10 10 10 10 9 9 9 9 9 8 8 8 8 8 9 7 6 6 5 6 5 5 7 6 3 4 4 4 4 6 5 3 4 4 5 5 5 5 6 5 5 7 9
15 16 17 18 18 20 23 24 22 18 15 16 17 14 12 12 11 10 9 8 8 7 7 8 9 10 10 9 9 9 10 11 13 12 11 12 12 12 12 10 8 8 9 8 7 8 8 7 6 6 6 6 6 5 4 5 5 4 5 4 4 4 4 4 5 4 2 2 3 2 4 4 2 2 4 4 4 4 3 5 5 5 4 4 8
11 12 12 13 14 17 20 21 20 17 15 17 19 18 17 15 12 11 10 9 9 8 7 8 9 10 11 11 10 10 10 11 12 12 12 11 10 11 11 9 7 7 7 6 6 6 6 6 6 5 5 5 6 5 5 5 4 3 4 4 3 3 3 3 3 3 3 1 2 1 3 4 1 2 4 5 5 3 1 3 4 5 7 6 6
9 9 9 10 11 14 15 17 18 16 14 17 19 18 19 17 13 12 12 10 9 9 8 9 10 10 11 11 11 11 11 11 12 12 12 12 10 10 10 9 8 6 5 5 5 4 4 5 4 4 5 4 4 4 4 4 4 3 3 3 3 3 1 2 2 2 4 2 2 3 3 4 2 3 5 7 9 8 5 6 6 7 8 8 8
8 9 9 9 10 11 12 14 17 15 12 15 19 18 20 20 15 13 13 12 11 10 9 10 10 11 11 11 11 11 11 11 11 10 10 10 10 9 8 8 7 6 5 5 5 5 4 4 4 3 3 3 3 3 3 3 3 3 3 2 3 3 2 1 2 2 3 3 2 2 1 1 2 4 5 4 6 7 7 9 12 13 14 14 15
7 8 9 9 10 11 12 13 15 14 11 12 17 19 22 24 20 15 14 14 14 13 12 11 11 12 12 11 11 12 11 11 11 10 9 8 7 7 7 7 6 5 4 4 5 5 5 5 6 6 4 3 3 4 4 3 3 4 5 4 4 4 4 2 3 2 2 3 3 2 1 2 2 4 6 7 6 6 6 8 11 13 16 20 21
7 8 8 8 9 11 12 13 13 13 12 12 14 17 20 23 24 21 17 15 15 16 15 15 14 14 13 12 12 13 13 14 14 12 10 8 7 7 8 7 6 5 6 6 6 6 7 8 9 9 8 7 6 7 7 7 6 6 6 6 6 6 6 5 4 4 4 4 4 4 4 4 4 4 5 7 7 5 7 10 11 10 14 18 19
6 6 6 7 8 10 11 13 13 13 14 15 14 15 17 20 23 25 23 19 17 16 17 18 18 17 17 16 15 16 16 16 17 15 13 12 11 10 10 9 7 7 7 8 8 8 9 10 11 12 12 11 10 10 11 11 10 9 9 10 8 8 7 6 7 7 7 7 7 7 6 7 6 6 6 5 5 5 10 15 16 14 15 17 16
4 4 4 5 6 8 9 12 13 14 16 17 16 16 17 17 19 22 24 22 19 16 16 18 20 20 21 21 20 18 17 17 18 18 16 14 13 13 11 11 10 9 8 8 9 10 10 11 13 13 14 14 14 14 14 15 14 12 11 13 13 11 9 8 8 9 9 10 10 9 9 9 9 8 7 7 8 11 14 18 19 16 17 18 15
4 4 3 3 5 6 8 10 12 14 16 18 18 18 18 17 17 18 20 22 22 19 17 18 19 20 22 23 24 23 22 21 21 22 21 18 16 12 9 8 8 8 8 9 9 10 10 10 12 14 15 16 17 17 17 18 18 16 14 16 17 14 11 11 10 9 10 11 11 11 11 10 10 10 9 10 14 16 17 19 20 19 18 17 16
4 4 3 2 2 3 6 8 10 12 14 16 17 18 18 19 19 20 21 23 25 24 21 20 20 22 22 21 21 23 24 26 26 26 26 22 17 13 11 10 8 6 7 9 9 9 9 9 11 14 15 15 16 17 18 18 19 19 19 20 20 16 13 13 11 10 11 11 11 11 11 10 10 11 9 9 12 15 17 20 22 19 17 17 19
5 4 3 2 2 3 4 5 7 9 11 12 14 16 18 20 21 23 25 26 26 25 24 22 22 23 21 18 18 19 21 25 28 29 29 28 25 23 22 19 15 11 10 10 11 11 11 11 13 14 14 15 16 16 17 18 19 21 21 22 22 20 18 16 15 13 12 11 11 11 10 10 10 10 10 11 13 16 19 19 18 17 18 19 20
6 5 3 1 2 3 3 4 6 7 9 10 11 12 13 16 18 21 24 26 27 26 25 23 23 23 22 21 21 21 21 23 26 29 29 29 28 26 23 19 16 14 12 12 13 13 13 13 13 13 14 14 15 15 17 18 18 20 21 22 23 22 21 19 19 18 15 13 12 10 10 12 11 10 14 18 19 20 20 19 19 20 22 22 23
8 7 6 5 3 2 1 3 5 7 8 10 10 10 12 13 15 16 18 21 23 25 25 25 25 25 25 25 23 22 23 23 23 24 23 23 23 21 18 15 14 12 12 12 11 11 10 10 10 11 11 11 11 12 14 16 16 17 19 20 21 21 21 21 21 20 18 17 14 12 14 16 16 16 19 21 21 21 22 23 24 26 28 29 30
7 6 6 7 7 6 4 3 4 5 8 10 10 11 12 12 13 14 14 16 18 20 21 24 25 25 24 24 21 21 23 23 20 19 20 21 20 16 14 13 12 11 11 10 9 9 8 8 8 8 8 8 8 10 11 14 15 15 17 18 18 19 21 21 20 19 18 17 17 17 19 20 20 20 22 22 23 24 26 28 30 31 31 29 27
7 6 6 6 7 7 7 6 5 5 6 9 10 11 11 12 13 14 14 15 15 16 18 19 20 21 21 22 21 21 22 21 20 22 24 23 19 15 14 13 12 12 11 10 9 9 7 6 6 5 6 6 7 8 10 12 13 13 14 14 15 16 17 17 18 17 17 18 18 20 21 22 22 22 23 23 24 25 28 30 29 25 23 22 21
8 7 7 6 7 7 7 7 8 7 7 8 10 12 11 13 14 14 15 16 16 17 18 18 18 19 19 21 22 21 22 22 23 24 24 24 21 17 16 14 13 13 12 10 9 7 5 4 4 4 4 4 5 5 7 9 9 10 10 10 10 12 14 15 16 17 17 19 20 20 21 22 23 24 24 25 26 28 29 28 24 19 19 21 22
10 9 8 8 8 8 8 7 8 9 8 9 10 12 12 14 16 16 17 18 17 18 20 21 21 21 21 24 24 22 22 23 25 25 24 24 22 19 16 14 14 14 11 9 8 5 4 4 3 3 4 4 4 4 4 5 6 7 8 8 9 11 14 15 16 18 19 20 21 21 23 24 25 26 26 27 28 28 29 27 25 23 21 21 21
13 12 12 11 11 11 10 10 10 10 10 10 11 12 12 14 17 19 20 20 19 19 21 23 24 25 25 26 25 23 23 25 24 25 26 25 22 19 15 14 14 13 10 8 6 4 4 3 3 3 4 4 4 4 4 3 4 6 7 7 8 12 16 16 17 19 20 21 22 24 25 26 27 28 29 30 29 29 28 28 26 23 21 20 20
18 17 16 15 15 15 15 14 14 13 12 12 12 11 12 13 15 18 21 22 22 21 21 23 25 26 28 28 27 26 27 27 26 27 27 25 22 18 15 14 13 11 9 6 5 4 3 3 3 3 4 4 4 4 4 4 5 7 7 6 7 11 16 17 17 18 20 21 23 24 25 27 27 28 29 28 27 27 27 26 26 23 21 21 20
23 23 22 20 19 19 19 19 18 17 15 14 13 12 12 12 13 15 18 20 22 23 22 21 21 23 27 29 30 30 29 28 29 30 27 23 22 19 15 14 12 11 9 7 5 4 3 3 3 3 3 4 4 5 5 5 7 9 10 10 12 14 16 17 18 19 20 21 21 21 22 22 21 20 19 18 19 20 21 22 24 22 18 18 19
27 27 26 25 24 23 23 23 22 21 18 16 15 14 14 14 14 14 14 15 18 22 22 20 20 23 26 27 27 28 27 28 30 30 26 22 21 19 16 15 14 12 10 9 9 6 4 3 3 3 4 5 6 6 6 7 8 10 11 13 14 15 15 17 18 18 17 17 17 17 16 15 14 14 14 14 15 17 19 22 23 17 13 15 17
28 28 28 28 27 26 26 26 26 25 23 21 19 17 16 16 16 15 15 14 17 20 22 23 25 28 28 26 25 25 27 29 28 26 25 22 20 18 17 15 13 11 10 10 8 6 4 4 3 4 5 6 7 7 7 8 9 11 12 13 14 15 16 16 17 16 15 16 16 16 14 13 13 14 14 15 17 20 24 26 23 16 14 16 17
29 29 29 29 29 29 28 28 29 30 28 26 23 21 18 17 18 17 16 15 16 18 20 23 27 28 27 26 26 25 27 28 26 24 23 21 19 17 16 13 11 11 10 9 7 6 5 4 4 5 6 7 7 7 8 9 10 11 12 13 13 13 13 13 13 14 15 15 14 13 12 13 14 15 18 21 24 26 25 22 19 16 16 18 18
29 30 30 29 29 30 30 30 31 32 32 31 28 24 21 18 17 18 17 17 17 17 18 21 23 24 25 25 25 25 25 25 25 24 22 20 19 17 15 13 12 11 10 8 7 6 5 5 5 6 7 7 8 8 8 9 10 10 10 10 10 10 11 11 12 13 12 11 11 12 13 14 16 19 23 23 22 22 19 15 15 16 16 16 16
28 29 30 30 30 29 30 31 31 32 34 34 31 27 24 21 18 16 17 19 19 18 19 19 19 21 24 26 27 28 30 29 27 26 23 21 19 18 16 14 12 10 9 8 6 5 4 5 6 7 7 7 8 8 8 8 8 8 8 8 9 10 12 12 11 11 10 10 11 13 14 15 16 19 20 18 15 15 15 14 15 15 13 14 15
24 26 27 28 28 28 28 29 30 30 31 33 32 29 26 24 20 18 17 18 19 20 20 19 21 23 25 28 31 33 33 32 29 27 24 22 20 19 17 15 13 11 9 7 5 4 4 5 6 7 7 7 7 7 7 8 7 8 8 9 10 11 12 11 11 11 11 12 12 14 16 17 16 15 16 16 15 15 14 13 13 14 13 13 14
20 21 22 23 24 25 26 27 29 30 30 31 32 30 27 25 24 21 18 15 16 19 19 18 20 22 23 29 35 35 33 32 29 26 23 21 20 19 18 15 13 10 8 6 4 5 5 6 6 6 5 5 6 6 6 7 7 8 9 10 11 11 10 10 11 11 12 13 15 16 17 16 13 13 14 15 15 14 13 13 14 14 14 13 14
20 20 20 20 21 21 23 24 26 27 28 28 27 26 28 31 31 29 26 22 18 18 18 17 19 21 22 29 36 36 33 30 26 22 19 17 17 16 15 14 12 8 6 6 5 5 5 5 4 4 4 4 4 4 5 7 8 9 9 9 8 7 8 9 9 9 12 15 16 16 15 13 12 13 13 13 13 13 13 13 14 14 13 14 14
22 22 20 19 19 20 20 21 22 23 24 25 25 24 27 34 35 34 35 35 31 26 23 21 23 28 29 32 36 35 31 28 23 18 16 16 14 13 12 11 9 7 6 6 6 5 5 4 4 4 4 4 3 4 5 7 8 7 8 7 5 6 7 9 9 11 14 17 15 13 12 13 13 13 13 13 14 13 13 13 13 13 13 14 14
24 25 23 20 20 20 20 20 21 22 22 22 23 23 24 30 33 34 36 38 37 36 33 28 25 27 28 29 31 29 24 21 20 19 18 16 14 13 12 10 8 7 7 7 6 5 5 5 5 6 5 5 5 5 6 7 5 4 4 5 5 6 8 9 10 14 16 14 12 11 12 12 13 12 12 13 14 14 13 13 12 12 13 14 15
23 26 25 22 21 21 20 20 20 22 22 21 22 22 22 23 26 29 31 33 33 35 36 34 31 27 23 22 24 21 16 15 17 17 17 17 17 16 14 11 10 9 9 7 6 7 7 7 7 7 6 6 6 7 7 6 5 4 3 3 3 5 7 9 12 16 15 11 10 11 11 11 12 12 13 13 14 15 14 13 13 13 13 14 15
25 27 28 26 24 21 20 19 19 20 22 21 21 22 23 22 21 22 26 29 30 30 31 32 32 30 26 25 26 23 19 18 16 15 15 17 18 17 14 12 11 11 10 9 9 10 9 9 8 7 7 7 8 8 6 5 4 4 3 2 3 5 7 10 13 15 13 10 10 11 11 11 12 13 13 13 14 14 13 13 14 14 14 14 15
25 26 28 28 27 24 21 19 18 18 20 20 20 21 23 23 21 19 21 24 27 28 28 27 27 28 27 28 29 27 23 23 21 18 18 19 19 17 15 14 14 13 13 12 12 11 10 10 9 8 8 8 8 7 5 5 5 4 3 2 3 5 7 10 12 13 12 10 10 11 11 11 12 12 13 13 13 13 13 13 14 14 14 14 15
22 24 25 26 27 27 25 22 19 18 18 19 19 20 21 22 22 19 17 18 21 22 23 23 24 26 27 27 27 25 25 26 24 22 21 23 23 22 20 18 18 17 16 14 12 11 11 10 9 9 9 9 7 6 6 6 5 3 2 2 3 5 8 10 12 13 11 10 11 12 11 11 11 12 13 14 14 14 14 14 14 14 14 14 15
22 23 24 24 25 26 27 26 23 20 18 17 18 18 19 20 21 19 17 16 16 16 18 21 23 26 28 28 27 28 30 29 26 24 25 26 26 25 23 21 19 18 16 14 13 12 11 11 10 9 9 8 7 6 7 6 4 3 3 2 3 6 8 10 11 13 11 9 10 12 11 11 12 12 12 13 14 14 14 14 15 15 15 15 16
22 23 24 24 23 23 24 25 25 22 20 17 17 17 17 18 19 19 17 15 14 14 15 18 21 25 29 30 30 30 31 30 28 27 28 28 26 24 22 20 18 17 15 14 13 13 12 11 10 9 8 7 6 6 6 6 4 3 3 2 3 6 8 10 12 14 13 10 10 11 11 11 12 12 12 13 14 13 14 15 15 15 16 16 17
19 21 22 23 23 20 20 21 22 21 20 18 16 16 17 18 18 19 18 16 15 15 15 15 15 19 24 29 31 32 31 32 32 30 29 28 25 21 19 18 16 15 15 14 14 14 12 11 10 9 8 7 6 6 6 5 4 3 2 2 3 6 8 10 12 13 13 11 11 11 11 11 12 12 13 13 14 14 15 15 15 15 15 15 15
18 20 20 20 20 18 18 18 18 18 17 15 14 14 16 17 17 18 18 17 16 17 16 15 14 14 15 19 25 28 28 30 33 33 32 29 24 20 18 17 16 15 15 15 14 13 11 10 10 9 9 7 6 6 6 5 4 3 2 2 4 6 7 8 8 9 11 12 11 11 11 12 12 13 13 13 13 14 14 15 15 15 16 16 17
19 19 18 16 14 12 14 16 16 15 14 12 11 12 15 16 15 16 16 16 15 15 14 15 17 17 14 12 15 21 28 32 33 34 33 30 24 19 18 17 17 16 15 14 13 11 10 10 9 10 10 8 7 6 6 5 3 2 2 2 4 5 6 7 8 10 13 14 12 10 11 13 13 13 13 13 14 14 14 15 15 15 16 17 19
17 16 14 11 7 5 8 11 12 12 11 10 8 10 13 14 14 13 13 13 13 13 13 15 18 17 13 7 6 13 26 33 32 30 29 28 25 21 19 18 17 16 14 13 11 10 10 9 10 10 10 9 8 6 5 4 3 1 1 3 4 5 6 7 9 12 14 14 12 12 14 16 16 15 14 15 16 16 14 14 15 15 15 16 16
14 12 9 5 2 2 3 5 7 9 9 6 5 8 11 12 13 12 12 11 11 11 12 16 16 13 11 12 12 12 17 24 26 26 27 26 24 22 20 18 16 14 12 11 10 9 9 10 10 10 9 9 8 6 4 3 3 1 1 3 4 5 5 6 9 12 14 14 15 16 18 19 19 16 14 14 14 13 13 14 15 15 15 15 14
13 12 10 7 6 4 2 2 3 6 7 5 4 6 9 11 12 12 11 9 9 10 12 15 15 12 14 19 22 22 21 24 26 26 25 24 22 21 19 17 15 13 10 9 9 9 10 11 10 8 9 10 9 7 5 4 3 1 2 3 4 5 6 7 9 11 13 14 16 18 20 21 19 16 13 12 13 13 13 14 14 15 15 14 13
14 13 11 10 9 8 4 2 1 1 5 6 5 5 8 9 10 12 10 8 9 10 10 11 14 16 19 23 25 24 23 25 25 25 24 23 21 18 15 14 13 11 9 9 11 11 11 11 9 8 8 9 9 7 6 4 2 0 3 4 4 5 6 7 9 11 12 14 16 18 20 20 18 15 13 13 13 13 14 14 15 15 15 14 14
12 13 12 10 9 9 9 7 6 5 4 3 3 5 8 9 9 10 9 7 7 9 7 7 10 15 21 25 25 21 19 22 25 25 25 23 19 16 13 12 11 10 9 11 12 11 9 8 8 7 6 7 8 7 5 3 1 2 4 5 5 6 7 7 9 10 12 14 16 18 20 20 18 15 14 14 13 13 13 14 15 15 14 14 14
12 12 12 11 9 8 9 9 7 6 5 3 4 6 8 9 9 9 9 8 8 8 7 6 8 12 20 25 24 19 19 24 26 24 22 20 17 14 12 11 10 10 10 11 12 10 8 7 7 6 6 6 7 6 4 1 1 3 4 5 6 7 7 7 8 10 11 13 16 18 19 20 19 16 15 14 14 14 14 14 15 15 15 14 15
15 11 10 10 10 10 10 9 8 7 7 7 8 9 9 8 9 8 8 8 8 8 8 8 9 13 19 24 23 21 23 25 25 22 20 18 15 12 11 10 10 10 10 10 10 8 6 6 7 8 7 7 6 5 3 1 2 3 5 6 7 8 8 8 8 9 11 13 15 17 19 20 20 16 14 14 14 14 14 15 15 15 15 14 14
19 17 14 11 11 12 12 11 10 9 9 9 9 9 8 8 7 7 7 8 8 8 9 10 13 17 22 25 24 23 24 24 22 20 18 15 12 11 10 10 9 8 7 8 7 6 6 8 9 8 7 7 6 4 2 1 2 3 4 6 7 9 9 9 8 9 10 12 14 16 18 20 20 15 13 13 15 15 14 14 15 15 14 13 14
18 21 21 18 14 13 13 11 10 10 9 9 9 9 9 9 9 9 10 10 10 10 11 14 18 22 24 24 23 22 22 22 21 19 16 14 12 10 10 9 8 6 6 7 7 7 8 9 8 7 7 7 5 4 2 1 1 2 3 5 7 9 10 10 9 9 10 12 13 15 17 19 18 15 12 13 14 14 13 14 15 15 13 13 14
17 20 23 23 20 18 16 14 12 11 10 10 10 11 12 13 13 13 14 14 15 16 19 22 25 24 23 22 22 22 22 21 19 17 14 12 10 9 9 9 8 6 6 8 9 9 8 8 7 7 7 6 5 3 2 1 1 1 2 4 6 8 10 10 10 9 10 11 13 14 15 17 18 15 13 12 14 14 13 13 14 14 14 14 14
14 17 20 21 22 22 21 19 18 17 16 15 15 16 17 18 19 19 19 20 22 23 25 25 25 23 22 21 21 21 20 18 17 14 11 9 8 9 9 9 8 7 8 9 9 9 8 7 7 6 6 6 5 4 2 2 1 0 2 4 5 7 9 10 10 10 10 11 12 13 14 16 18 17 14 12 13 13 13 13 14 14 14 13 13
Wind_Direction
225 232 234 236 238 235 229 223 218 223 234 225 199 173 182 187 165 158 156 146 145 149 149 150 148 148 148 146 147 145 139 134 129 124 126 127 128 129 127 123 124 128 131 134 137 136 133 130 133 135 132 130 130 128 131 133 132 131 130 127 126 124 123 133 136 130 106 89 96 84 59 67 71 60 56 42 38 44 28 13 10 7 349 331 335
219 230 234 237 238 231 225 223 223 234 242 225 207 198 200 195 181 171 161 153 152 150 155 162 159 159 159 155 155 150 146 143 137 132 132 130 130 130 127 126 128 131 129 128 132 136 137 138 140 143 146 145 138 138 149 143 137 142 140 136 133 126 123 134 142 141 118 69 94 81 40 64 94 16 21 27 32 44 14 359 4 353 343 328 322
210 222 228 231 233 229 225 227 230 238 239 222 212 215 214 203 189 181 170 162 164 164 169 173 171 173 172 169 166 161 157 155 149 145 143 140 136 135 132 134 135 131 127 130 138 140 135 135 140 143 151 156 153 166 177 160 156 168 158 154 154 145 140 145 148 154 157 115 99 129 348 14 77 334 349 348 358 26 345 324 343 333 331 335 317
192 201 208 208 214 218 221 229 231 232 229 217 214 218 212 202 194 188 182 178 178 181 187 188 187 188 185 183 178 171 168 166 162 159 156 152 150 147 143 142 143 142 145 155 164 163 150 147 152 147 144 149 157 177 188 173 170 180 174 171 178 188 187 152 148 162 168 160 142 185 296 345 357 330 343 336 337 347 334 318 325 317 317 325 319
179 189 196 197 199 201 206 218 221 223 225 216 214 212 204 202 204 196 190 193 192 191 197 202 202 201 197 195 189 182 179 175 171 170 169 164 160 158 155 152 152 156 169 179 186 193 190 186 195 189 166 158 165 188 202 192 186 193 195 190 198 233 268 188 168 176 175 181 177 190 251 304 295 317 339 331 324 332 329 322 324 321 316 317 317
169 177 188 197 200 201 204 211 215 221 227 217 214 215 211 212 214 207 200 203 203 202 206 210 213 211 206 203 198 192 188 184 180 178 174 170 170 171 169 166 165 171 184 200 212 221 226 224 224 227 227 220 218 227 235 229 213 213 216 210 214 242 259 239 221 226 208 206 217 239 248 237 265 301 320 323 320 318 320 323 323 321 316 317 319
167 174 181 190 201 208 213 215 216 221 225 223 222 225 227 225 223 221 218 216 213 212 213 216 220 220 214 207 202 200 198 196 194 191 181 175 179 187 188 185 189 202 212 223 232 237 243 243 240 241 243 244 244 246 257 264 257 245 240 231 228 245 256 247 237 245 246 243 253 262 265 273 281 282 300 321 328 316 316 323 319 310 308 314 319
162 173 180 187 202 213 219 222 221 220 223 228 232 236 238 236 232 230 229 229 228 225 222 224 226 229 228 221 215 216 213 206 202 200 196 193 192 195 201 206 217 232 239 244 247 248 252 251 249 249 250 250 249 248 254 263 266 261 257 254 248 251 257 246 238 252 259 263 275 279 278 285 292 296 304 318 324 310 312 321 322 314 308 312 317
152 168 183 195 208 217 224 226 224 225 229 234 242 248 247 242 238 235 232 232 234 230 228 232 232 231 232 231 229 228 225 218 213 209 204 200 200 203 209 218 228 239 247 256 261 261 262 260 256 253 254 254 253 250 249 252 256 254 254 260 262 260 260 248 241 253 260 267 277 276 279 288 288 292 299 299 307 315 319 325 326 319 311 311 313
123 143 172 200 215 222 230 228 225 230 235 238 244 252 253 248 242 237 232 231 232 231 232 237 239 236 236 237 236 235 233 232 229 224 217 206 197 200 215 224 228 237 244 254 267 269 268 268 264 259 256 255 255 254 252 252 254 251 246 252 260 262 258 251 247 250 257 268 275 270 276 288 283 282 291 297 307 316 322 325 324 318 314 313 312
120 134 147 174 212 220 232 232 229 233 237 240 243 245 246 245 243 242 240 236 234 235 236 238 243 243 241 240 239 239 240 239 236 234 232 226 215 220 244 250 245 253 257 261 270 274 270 265 264 265 263 259 257 256 256 256 257 256 250 251 257 258 250 246 246 248 255 266 272 268 273 283 280 282 289 297 308 316 320 323 323 319 315 312 310
120 140 147 168 205 218 238 241 240 241 241 243 244 240 238 238 240 244 245 245 244 244 245 246 245 241 237 236 239 244 245 243 241 239 242 246 244 244 251 253 251 255 263 267 269 268 267 262 260 264 265 262 261 260 259 257 257 259 258 257 258 255 247 243 242 244 250 260 267 270 273 281 286 282 278 285 301 312 317 320 319 313 309 308 307
71 80 91 121 192 222 242 247 250 251 248 245 243 242 239 238 238 239 242 247 249 248 248 246 240 236 239 243 247 250 249 246 245 243 244 247 243 238 238 240 242 248 257 266 265 259 259 261 260 262 264 264 265 264 263 263 261 261 263 262 260 254 247 244 245 248 251 254 263 268 268 277 285 277 275 288 302 310 314 314 310 307 305 303 300
48 49 46 35 17 353 300 257 253 254 254 252 248 246 243 239 238 236 236 241 245 246 247 245 242 242 243 245 247 249 250 250 248 244 236 227 221 221 225 231 237 248 255 257 256 250 248 250 252 257 261 264 266 265 266 268 267 265 266 266 261 251 243 241 244 249 251 252 259 265 269 279 286 282 286 296 303 306 309 309 307 305 302 300 301
29 32 31 21 5 355 352 316 271 259 259 261 260 254 246 239 237 235 233 236 239 241 242 242 244 243 239 240 240 242 250 249 237 221 204 197 205 216 220 224 232 239 241 237 232 230 229 229 236 247 255 260 264 265 266 269 271 270 267 263 257 248 243 243 244 248 252 257 266 272 279 287 291 290 295 301 303 305 308 308 308 308 306 305 306
4 1 4 4 352 343 339 325 310 292 271 265 264 263 256 247 240 233 231 234 235 233 230 231 235 234 232 235 234 234 244 238 214 200 195 198 211 217 209 211 219 220 220 219 217 217 217 218 226 240 252 260 263 265 266 267 269 268 263 259 256 252 248 246 247 251 258 267 276 282 287 291 293 293 295 299 301 306 308 308 309 308 305 301 299
343 339 334 329 325 327 329 322 314 304 291 279 271 269 265 255 246 236 233 236 235 231 228 226 230 231 230 233 233 233 237 226 206 200 204 208 211 205 195 199 207 208 209 209 208 210 211 219 231 241 252 261 262 264 264 261 259 260 259 258 256 253 250 250 254 261 269 276 282 285 288 290 290 292 294 296 300 303 304 304 303 298 293 292 293
316 313 307 303 301 302 305 306 303 296 292 288 281 277 270 257 250 245 240 240 241 240 238 235 236 235 229 229 233 236 235 225 212 205 208 211 205 194 187 192 199 203 204 202 204 213 224 233 245 253 264 273 276 278 269 253 247 251 255 257 256 255 256 259 264 271 276 281 284 286 288 290 292 294 295 297 300 300 300 301 300 297 294 291 292
295 294 292 290 286 284 284 285 283 280 277 277 277 276 271 261 254 250 246 246 248 249 249 245 242 240 234 231 236 237 227 220 214 208 207 206 198 186 180 187 195 199 199 202 211 221 231 248 265 275 286 292 294 295 285 260 239 242 251 255 256 260 264 268 274 279 282 285 286 288 290 292 293 295 297 298 298 298 299 300 302 301 295 290 290
290 289 288 285 280 276 275 274 273 270 268 265 263 265 268 267 261 255 250 249 249 249 251 250 246 242 236 234 236 232 220 215 212 205 199 196 192 184 178 181 188 190 193 203 219 226 236 259 278 290 300 302 303 304 294 275 252 247 249 239 236 255 269 275 278 281 285 287 290 293 296 297 298 300 302 303 303 303 303 304 304 303 296 291 290
289 287 286 284 278 274 272 271 270 268 265 260 255 254 258 262 266 264 257 251 247 245 245 247 246 239 232 230 231 226 216 210 206 196 188 189 192 186 179 181 184 183 184 188 189 203 236 267 285 298 312 315 315 312 298 282 268 261 257 249 248 260 273 279 281 284 289 292 295 298 299 300 301 301 301 300 299 299 299 300 300 299 292 288 288
289 286 283 280 277 273 269 267 268 268 267 264 256 251 251 253 256 262 261 251 243 240 238 234 231 226 220 219 225 224 213 203 197 187 181 188 193 185 180 185 187 180 176 172 171 188 237 275 294 309 321 323 319 312 299 285 275 269 264 261 263 268 275 283 288 292 294 296 296 297 296 296 294 291 290 288 288 289 289 290 291 289 281 280 283
288 285 282 279 277 274 269 266 264 264 266 265 261 256 253 251 250 252 255 251 243 238 235 229 227 228 223 211 210 211 202 194 190 185 183 188 191 186 186 192 191 180 171 171 182 214 261 287 304 316 322 322 318 311 300 286 274 270 268 268 270 273 278 286 291 293 295 295 295 296 296 294 291 290 289 288 286 287 288 290 290 288 283 283 281
287 285 283 280 277 274 271 267 264 262 262 262 262 260 257 252 248 245 244 244 242 238 234 231 231 236 231 211 198 196 193 187 186 187 189 190 189 188 191 194 191 182 178 187 216 248 270 287 304 314 319 319 315 306 295 282 275 273 274 275 277 281 286 292 294 296 298 299 298 298 296 293 293 293 292 291 291 292 294 296 296 292 287 286 285
286 284 283 280 277 274 271 266 263 261 261 261 260 259 257 254 250 244 237 235 236 233 230 230 229 229 223 206 191 188 189 189 189 191 191 190 188 189 192 194 194 194 198 213 234 249 267 290 305 311 314 313 307 299 289 282 280 278 279 284 289 295 299 299 297 299 301 300 297 297 298 299 298 298 299 298 299 301 302 299 294 290 287 287 287
286 283 281 278 276 273 270 267 263 259 258 260 260 257 254 251 250 248 241 234 231 228 227 226 221 215 210 202 193 189 190 191 192 191 190 189 190 190 192 194 197 203 210 219 228 243 272 294 301 305 307 303 297 292 286 283 284 284 288 296 302 305 304 300 299 301 303 302 301 302 304 303 302 305 309 307 302 301 302 297 294 294 294 293 292
290 287 284 280 276 271 268 265 263 259 256 256 257 256 252 249 247 247 243 239 235 232 228 224 218 212 207 203 199 195 193 192 191 190 190 191 191 193 195 196 199 201 205 213 229 255 280 292 293 295 296 291 287 286 284 285 290 294 301 306 306 305 302 299 301 305 308 311 311 309 310 310 309 311 311 305 298 299 300 299 297 297 296 296 294
291 288 286 283 278 274 268 263 261 260 257 255 254 253 249 244 241 238 237 238 237 233 230 226 221 214 207 205 204 199 194 194 193 192 193 193 193 195 197 196 196 200 208 219 241 263 273 279 280 280 279 278 281 285 287 291 297 300 304 307 307 307 306 308 312 316 317 319 318 315 314 315 311 307 303 299 299 301 301 299 297 296 296 296 293
288 286 286 284 280 277 273 268 263 261 259 256 254 249 245 243 242 241 239 237 231 225 224 222 216 209 201 201 201 198 195 196 197 197 198 198 199 201 199 196 197 204 217 234 250 260 258 256 258 261 266 273 275 274 281 290 298 301 304 308 310 310 314 319 320 319 319 323 323 319 316 313 307 305 306 304 302 302 301 299 298 296 295 294 292
283 282 282 281 279 277 275 272 268 263 260 257 253 248 248 249 248 245 243 241 237 232 230 226 218 213 207 202 199 197 196 196 196 198 201 200 199 197 196 199 207 216 227 240 249 248 240 238 242 243 248 256 252 249 269 287 297 302 305 310 308 306 316 325 326 325 326 328 328 322 313 308 306 306 307 304 303 304 304 300 299 298 296 294 294
281 280 279 276 276 277 276 274 269 263 259 257 252 247 248 252 253 248 243 242 242 241 242 241 234 226 219 208 199 195 197 200 199 201 203 198 193 198 205 209 215 225 237 245 244 234 232 234 236 236 235 230 230 242 264 279 280 271 284 303 310 314 323 329 329 332 333 330 323 316 310 307 306 305 305 305 307 308 307 303 300 298 296 294 294
280 280 278 274 272 273 274 275 271 264 258 255 252 245 242 247 253 250 242 239 239 240 242 245 244 242 235 218 205 204 216 223 213 205 204 200 196 203 211 210 214 229 242 241 231 227 227 220 217 222 222 218 231 250 262 264 255 235 238 275 298 308 321 328 332 338 341 331 315 314 313 310 308 307 306 308 308 307 305 303 301 299 297 296 294
283 282 280 277 272 268 268 271 271 266 259 253 250 246 240 238 243 246 242 237 235 236 239 241 242 245 244 234 229 234 242 234 213 197 200 206 205 205 207 207 217 230 232 225 219 219 213 204 201 207 208 212 232 251 253 240 227 218 223 258 294 309 323 333 338 340 339 327 315 315 314 311 311 311 310 310 308 305 303 301 300 300 297 295 295
291 287 284 279 273 267 263 263 266 265 260 253 248 246 242 237 235 236 236 234 232 234 238 239 238 239 239 237 238 239 231 218 208 200 201 207 210 211 212 212 213 214 212 210 207 202 197 193 192 197 206 218 231 239 226 207 201 206 235 285 314 319 327 337 341 338 334 326 320 318 316 314 315 316 315 313 309 305 302 300 300 299 295 294 296
301 297 293 287 278 271 264 259 258 261 260 255 249 244 241 237 233 229 227 227 228 230 234 235 232 228 225 228 234 229 211 201 203 205 205 206 209 209 209 208 204 201 202 201 194 187 189 191 191 198 212 222 224 211 194 192 193 202 247 299 322 328 335 343 343 337 332 327 323 320 319 319 319 317 315 312 310 307 305 301 300 298 294 292 295
304 301 299 295 286 278 270 262 257 255 255 254 250 244 239 235 232 228 222 219 217 217 222 227 226 221 218 218 221 217 207 202 205 210 209 209 210 207 203 201 200 200 198 191 184 182 185 188 192 201 210 209 199 187 185 186 190 208 241 290 329 338 343 344 336 332 332 330 326 326 325 323 322 320 316 314 311 308 304 301 298 295 294 296 304
311 305 301 298 292 282 272 267 262 256 253 254 250 244 237 231 229 226 221 216 208 201 208 220 223 221 218 213 209 209 209 209 212 215 212 208 204 201 198 197 198 196 188 180 181 186 188 191 197 200 196 185 174 174 182 184 191 219 248 302 337 337 341 343 342 346 350 344 332 330 328 325 325 323 318 315 312 308 305 303 299 295 295 302 311
312 303 296 292 288 276 264 263 265 260 255 253 250 241 232 226 225 223 218 213 206 199 203 213 219 220 220 218 213 212 212 210 208 207 205 197 189 186 187 188 188 185 179 179 186 190 190 196 198 188 174 167 166 174 187 190 197 224 251 311 334 335 343 348 348 349 349 341 332 332 331 328 326 324 320 317 314 310 307 304 300 298 298 304 311
312 309 302 293 284 268 251 251 260 261 255 250 245 236 227 223 223 221 216 212 210 208 207 210 215 222 229 228 220 216 213 207 200 194 188 182 177 175 177 176 172 171 174 184 193 193 191 195 192 175 162 162 167 177 189 193 200 227 252 314 331 334 343 344 336 334 336 336 335 336 334 330 327 325 321 317 314 313 310 307 304 301 302 308 316
321 321 316 304 290 264 239 242 254 257 251 246 240 232 223 218 216 217 214 210 208 207 205 208 216 227 238 246 240 230 218 205 193 183 177 173 169 169 168 167 167 171 178 189 197 195 190 191 185 171 162 162 167 178 189 190 195 234 280 317 327 330 335 334 331 334 338 340 340 339 336 334 330 326 323 324 327 327 323 316 310 305 303 308 316
334 332 328 316 299 244 220 235 246 245 241 240 236 224 215 210 211 213 210 206 203 199 199 207 219 227 229 226 235 227 211 196 182 175 172 171 170 172 171 170 174 181 188 193 194 188 184 184 178 170 165 164 167 174 186 190 189 223 310 314 321 331 335 330 329 335 340 343 342 339 338 339 339 335 333 335 337 333 324 315 310 308 306 307 311
352 354 358 359 26 122 176 213 225 228 230 229 223 216 207 201 203 207 203 199 195 189 196 210 218 218 204 178 157 162 182 182 175 172 173 171 172 175 177 178 182 188 192 191 186 181 180 175 167 163 165 167 163 158 161 181 193 214 326 322 322 329 330 324 325 333 339 343 342 340 341 346 348 343 335 331 329 324 319 316 314 312 312 310 309
15 22 31 43 57 71 107 187 226 235 227 209 192 200 197 194 198 198 189 188 192 191 203 217 213 193 183 181 171 164 172 181 178 173 171 171 173 176 178 180 183 185 186 184 180 178 175 167 157 158 173 179 174 166 166 180 192 213 339 335 329 325 320 319 324 331 336 340 341 342 346 351 351 345 333 327 327 326 325 322 319 317 317 315 315
22 31 41 50 54 61 82 116 106 182 199 198 194 181 175 180 192 189 176 178 197 200 208 219 205 185 182 184 177 170 174 180 177 170 170 172 171 170 171 176 179 180 182 183 180 173 165 159 157 165 178 184 183 179 179 184 188 344 346 339 335 327 319 317 321 327 334 338 341 345 350 352 350 344 338 334 331 329 327 325 323 322 322 322 327
25 32 43 52 54 55 63 72 78 94 133 174 185 163 154 159 174 176 167 169 191 196 197 203 193 185 186 184 175 165 170 178 176 174 173 171 164 158 161 171 177 178 179 182 178 167 156 160 169 168 164 174 182 180 174 177 169 7 348 339 338 334 324 316 316 324 332 337 341 347 353 353 351 349 347 341 335 329 327 327 327 327 327 331 340
33 34 41 51 58 63 67 68 70 76 86 103 126 138 144 152 160 161 156 160 176 185 187 181 171 178 187 184 173 163 169 176 174 172 171 168 164 164 167 170 171 169 171 176 175 164 154 162 173 166 157 168 177 173 164 150 27 3 347 340 343 340 329 318 317 323 330 336 341 346 351 354 355 356 351 342 334 330 329 331 332 331 331 336 343
41 40 44 55 67 78 80 73 69 73 81 91 106 118 128 140 145 145 149 162 172 174 172 167 163 172 181 178 169 167 173 173 167 164 163 161 160 163 164 165 167 168 168 173 174 167 160 167 174 172 170 171 172 167 155 92 29 6 351 349 351 346 336 327 324 325 330 337 342 345 349 354 359 357 345 336 334 333 332 334 336 334 333 336 340
48 51 57 67 80 88 87 79 71 74 82 88 96 105 116 126 129 129 136 149 152 145 144 153 163 169 168 164 162 168 170 164 157 155 155 153 153 157 161 163 165 162 160 163 164 166 176 181 178 176 178 178 174 168 147 80 37 14 3 359 356 353 347 341 334 331 332 337 341 344 348 355 359 354 338 334 336 335 332 335 339 338 337 338 340
54 57 62 68 76 87 93 88 75 72 77 81 83 91 106 122 131 132 130 128 129 130 137 148 156 159 156 153 157 164 162 155 152 154 153 151 155 161 163 161 157 151 155 165 167 171 182 183 178 178 183 183 177 168 145 100 59 28 13 3 359 360 357 350 343 338 336 338 344 346 349 355 358 351 337 334 337 334 333 338 344 345 343 341 341
59 63 67 69 70 75 83 87 83 79 82 82 81 86 95 105 114 122 125 126 128 134 140 144 146 146 146 148 155 159 156 154 156 158 155 153 158 162 165 166 164 159 165 171 172 177 182 182 180 186 188 182 175 171 161 140 120 59 15 1 2 6 4 359 355 350 345 345 348 348 350 356 0 354 342 337 339 339 337 339 344 347 348 344 341
57 62 68 72 73 74 76 78 79 83 89 94 96 98 100 103 107 113 119 123 127 132 136 139 140 142 145 150 154 156 156 156 156 154 150 152 160 166 168 169 167 166 168 170 173 180 185 184 184 188 185 175 172 175 175 171 162 53 5 0 5 11 11 10 10 6 0 358 356 353 354 360 1 356 347 341 342 344 344 342 343 347 347 344 344